TimeAKDT,TemperatureF,Dew PointF,Humidity,Sea Level PressureIn,VisibilityMPH,Wind Direction,Wind SpeedMPH,Gust SpeedMPH,PrecipitationIn,Events,Conditions,WindDirDegrees,DateUTC
12:53 AM,50.0,45.0,83,29.70,10.0,North,4.6,-,N/A,,Scattered Clouds,350,2013-08-17 08:53:00
1:53 AM,50.0,44.1,80,29.72,10.0,North,9.2,-,N/A,,Scattered Clouds,350,2013-08-17 09:53:00
2:53 AM,46.9,43.0,86,29.72,10.0,North,5.8,-,N/A,,Clear,10,2013-08-17 10:53:00
3:53 AM,45.0,42.1,90,29.72,10.0,North,4.6,-,N/A,,Partly Cloudy,360,2013-08-17 11:53:00
4:53 AM,43.0,41.0,93,29.71,10.0,North,6.9,-,N/A,,Clear,350,2013-08-17 12:53:00
5:53 AM,44.1,41.0,89,29.71,10.0,North,4.6,-,N/A,,Clear,360,2013-08-17 13:53:00
6:19 AM,44.6,41.0,87,29.71,10.0,North,3.5,-,N/A,,Mostly Cloudy,350,2013-08-17 14:19:00
6:53 AM,46.0,43.0,89,29.72,10.0,North,4.6,-,N/A,,Mostly Cloudy,360,2013-08-17 14:53:00
7:53 AM,48.0,43.0,83,29.73,10.0,North,6.9,-,N/A,,Mostly Cloudy,350,2013-08-17 15:53:00
8:53 AM,48.9,43.0,80,29.74,10.0,NNW,8.1,-,N/A,,Mostly Cloudy,340,2013-08-17 16:53:00
9:53 AM,50.0,44.1,80,29.74,10.0,North,5.8,-,N/A,,Mostly Cloudy,350,2013-08-17 17:53:00
10:53 AM,54.0,44.1,69,29.75,10.0,North,4.6,-,N/A,,Mostly Cloudy,360,2013-08-17 18:53:00
11:53 AM,55.0,45.0,69,29.75,10.0,Variable,3.5,-,N/A,,Mostly Cloudy,0,2013-08-17 19:53:00
12:46 PM,55.4,44.6,67,29.75,10.0,Calm,Calm,-,N/A,,Scattered Clouds,0,2013-08-17 20:46:00
12:53 PM,55.9,45.0,67,29.75,10.0,South,4.6,-,N/A,,Scattered Clouds,190,2013-08-17 20:53:00
1:53 PM,55.9,46.0,69,29.74,10.0,SW,9.2,-,N/A,,Scattered Clouds,220,2013-08-17 21:53:00
2:53 PM,57.0,46.9,69,29.75,10.0,SW,10.4,-,N/A,,Scattered Clouds,220,2013-08-17 22:53:00
3:53 PM,57.9,46.9,67,29.75,10.0,SW,11.5,-,N/A,,Scattered Clouds,220,2013-08-17 23:53:00
4:53 PM,60.1,46.9,62,29.73,10.0,SW,10.4,-,N/A,,Scattered Clouds,220,2013-08-18 00:53:00
5:53 PM,63.0,48.0,58,29.73,10.0,WSW,11.5,-,N/A,,Partly Cloudy,240,2013-08-18 01:53:00
6:53 PM,64.9,44.1,47,29.72,10.0,NW,16.1,23.0,N/A,,Scattered Clouds,310,2013-08-18 02:53:00
7:53 PM,64.0,45.0,50,29.71,10.0,WNW,11.5,-,N/A,,Scattered Clouds,300,2013-08-18 03:53:00
8:53 PM,62.1,46.0,56,29.71,10.0,West,11.5,-,N/A,,Scattered Clouds,280,2013-08-18 04:53:00
9:53 PM,57.9,48.0,70,29.70,10.0,WNW,9.2,-,N/A,,Scattered Clouds,300,2013-08-18 05:53:00
10:53 PM,54.0,46.9,77,29.70,10.0,NNW,4.6,-,N/A,,Scattered Clouds,340,2013-08-18 06:53:00
11:53 PM,51.1,46.9,86,29.70,10.0,NW,3.5,-,N/A,,Scattered Clouds,320,2013-08-18 07:53:00